This is the latest recevied weather packets stored in our database for station/object SR8NGO-1. If no packets are shown the sender has not sent any weather packets the latest 1 day(s).
| Time | Temp. | Humidity | Pressure | Rain* | Wind** | Luminosity | Snow |
|---|---|---|---|---|---|---|---|
| 1777993967 | 27.22° C | 32% | 997.8 hPa | 137.92 mm | 2.24 m/s, 179° | - | - |
| 1777993727 | 26.11° C | 32% | 997.8 hPa | 137.92 mm | 4.02 m/s, 172° | - | - |
| 1777993487 | 27.22° C | 32% | 997.9 hPa | 137.92 mm | 4.47 m/s, 183° | - | - |
| 1777993247 | 27.22° C | 32% | 997.9 hPa | 137.92 mm | 5.81 m/s, 190° | - | - |
| 1777993007 | 27.22° C | 31% | 997.9 hPa | 137.92 mm | 4.47 m/s, 168° | - | - |
| 1777992767 | 27.22° C | 31% | 998 hPa | 137.92 mm | 4.47 m/s, 179° | - | - |
| 1777992527 | 27.22° C | 31% | 997.9 hPa | 137.92 mm | 3.58 m/s, 166° | - | - |
| 1777992287 | 27.22° C | 30% | 997.9 hPa | 137.92 mm | 5.36 m/s, 173° | - | - |
| 1777992047 | 27.22° C | 30% | 998 hPa | 137.92 mm | 5.81 m/s, 179° | - | - |
| 1777991807 | 27.22° C | 30% | 997.9 hPa | 137.92 mm | 4.02 m/s, 179° | - | - |
| 1777991567 | 27.22° C | 30% | 998 hPa | 137.92 mm | 5.36 m/s, 172° | - | - |
| 1777991327 | 27.78° C | 30% | 998 hPa | 137.92 mm | 6.26 m/s, 189° | - | - |
| 1777991087 | 27.78° C | 30% | 998 hPa | 137.92 mm | 8.05 m/s, 211° | - | - |
| 1777990847 | 28.89° C | 30% | 998.1 hPa | 137.92 mm | 3.13 m/s, 161° | - | - |
| 1777990607 | 27.22° C | 29% | 998.1 hPa | 137.92 mm | 3.58 m/s, 82° | - | - |
| 1777990367 | 27.78° C | 29% | 998.1 hPa | 137.92 mm | 3.58 m/s, 190° | - | - |
| 1777990127 | 27.78° C | 29% | 998.2 hPa | 137.92 mm | 5.81 m/s, 183° | - | - |
| 1777989887 | 30° C | 30% | 998.2 hPa | 137.92 mm | 7.6 m/s, 173° | - | - |
| 1777989647 | 28.89° C | 30% | 998.2 hPa | 137.92 mm | 5.36 m/s, 149° | - | - |
| 1777989407 | 28.89° C | 29% | 998.3 hPa | 137.92 mm | 5.36 m/s, 156° | - | - |
| 1777989167 | 30° C | 29% | 998.3 hPa | 137.92 mm | 3.58 m/s, 207° | - | - |
| 1777988927 | 28.89° C | 29% | 998.4 hPa | 137.92 mm | 5.81 m/s, 76° | - | - |
| 1777988447 | 28.89° C | 28% | 998.4 hPa | 137.92 mm | 3.13 m/s, 256° | - | - |
| 1777988207 | 32.22° C | 27% | 998.4 hPa | 137.92 mm | 1.79 m/s, 149° | - | - |
| 1777987967 | 28.89° C | 27% | 998.5 hPa | 137.92 mm | 4.02 m/s, 149° | - | - |
* Rain latest hour (hover to see other rain measurements)
** Current wind speed in m/s (hover to see current wind gust speed)